Location: Unspecified
(0.0000°N, 0.0000°E)
Time: 04:28:19
(UTC+00:00)

Ablestar 020 - Visible Passes

Search period start: 17 September 2024 00:00
Search period end: 27 September 2024 00:00
Orbit: 1093 x 1155 km, 90.2° (Epoch: 16 September)

Date Brightness Start Highest point End Pass type
(mag) Time Alt. Az. Time Alt. Az. Time Alt. Az.
17 Sep 7.8 19:07:22 15° NE 19:07:22 15° NE 19:08:56 10° NE visible
17 Sep 8.3 20:45:12 10° SSW 20:55:07 18° NW 20:57:03 10° NNW visible
18 Sep 7.0 20:06:33 10° S 20:15:33 44° NNW 20:20:02 10° N visible
19 Sep 6.2 19:28:51 10° SSE 19:35:26 55° E 19:42:02 10° N visible
19 Sep 8.8 21:20:05 10° WSW 21:22:39 12° W 21:25:14 10° WNW visible
20 Sep 7.1 18:52:14 10° SE 18:57:37 25° E 19:02:59 10° NNE visible
20 Sep 7.8 20:39:09 10° SSW 20:44:49 29° W 20:50:32 10° NW visible
21 Sep 7.8 18:19:05 10° E 18:19:48 10° E 18:20:32 10° E visible
21 Sep 6.5 20:00:19 10° S 20:06:59 63° W 20:13:42 10° NNW visible
22 Sep 6.1 19:22:28 10° SSE 19:29:09 62° E 19:35:51 10° N visible
22 Sep 8.9 21:15:11 10° WSW 21:16:22 10° W 21:17:32 10° W visible
23 Sep 6.9 18:45:39 10° SE 18:51:19 29° E 18:57:00 10° NNE visible
23 Sep 8.0 20:33:08 10° SSW 20:38:32 26° W 20:44:00 10° NW visible
24 Sep 7.7 18:11:02 10° ESE 18:13:32 12° E 18:16:00 10° ENE visible
24 Sep 6.8 19:54:07 10° S 20:00:42 56° W 20:07:22 10° NNW visible
25 Sep 6.1 19:16:08 10° SSE 19:22:52 70° E 19:29:40 10° N visible
26 Sep 6.8 18:39:06 10° SSE 18:45:03 33° E 18:51:00 10° NNE visible
26 Sep 8.3 20:27:09 10° SW 20:32:16 23° W 20:37:25 10° NW visible
